TimeCEST,TemperatureF,Dew PointF,Humidity,Sea Level PressureIn,VisibilityMPH,Wind Direction,Wind SpeedMPH,Gust SpeedMPH,PrecipitationIn,Events,Conditions,WindDirDegrees,DateUTC
12:00 AM,55.4,50.0,82,30.09,6.2,West,13.8,-,N/A,,Mostly Cloudy,260,2013-06-23 22:00:00
12:30 AM,55.4,50.0,82,30.09,6.2,West,11.5,-,N/A,,Mostly Cloudy,260,2013-06-23 22:30:00
1:00 AM,55.4,50.0,82,30.09,6.2,WSW,11.5,-,N/A,,Mostly Cloudy,250,2013-06-23 23:00:00
1:30 AM,55.4,50.0,82,30.12,6.2,West,11.5,-,N/A,,Mostly Cloudy,260,2013-06-23 23:30:00
2:00 AM,55.4,50.0,82,30.12,6.2,West,11.5,-,N/A,,Mostly Cloudy,270,2013-06-24 00:00:00
2:30 AM,55.4,50.0,82,30.12,6.2,West,10.4,-,N/A,,Mostly Cloudy,260,2013-06-24 00:30:00
3:00 AM,55.4,50.0,82,30.12,6.2,West,11.5,-,N/A,,Mostly Cloudy,260,2013-06-24 01:00:00
3:30 AM,53.6,50.0,88,30.12,6.2,WSW,10.4,-,N/A,,Mostly Cloudy,250,2013-06-24 01:30:00
4:00 AM,53.6,50.0,88,30.12,6.2,West,9.2,-,N/A,,Scattered Clouds,260,2013-06-24 02:00:00
4:30 AM,53.6,50.0,88,30.12,6.2,West,9.2,-,N/A,,Scattered Clouds,260,2013-06-24 02:30:00
5:00 AM,53.6,50.0,88,30.12,6.2,West,9.2,-,N/A,,Mostly Cloudy,260,2013-06-24 03:00:00
5:30 AM,53.6,50.0,88,30.15,6.2,West,10.4,-,N/A,,Mostly Cloudy,260,2013-06-24 03:30:00
6:00 AM,53.6,50.0,88,30.15,6.2,West,10.4,-,N/A,,Scattered Clouds,270,2013-06-24 04:00:00
6:30 AM,53.6,50.0,88,30.15,6.2,West,10.4,-,N/A,,Mostly Cloudy,280,2013-06-24 04:30:00
7:00 AM,53.6,50.0,88,30.15,6.2,West,8.1,-,N/A,,Mostly Cloudy,280,2013-06-24 05:00:00
7:30 AM,53.6,50.0,88,30.15,6.2,West,12.7,-,N/A,,Mostly Cloudy,270,2013-06-24 05:30:00
8:00 AM,55.4,50.0,82,30.18,6.2,West,10.4,-,N/A,,Mostly Cloudy,280,2013-06-24 06:00:00
8:30 AM,55.4,50.0,82,30.18,6.2,West,13.8,-,N/A,,Mostly Cloudy,280,2013-06-24 06:30:00
9:00 AM,55.4,50.0,82,30.18,6.2,West,12.7,-,N/A,,Mostly Cloudy,280,2013-06-24 07:00:00
9:30 AM,55.4,50.0,82,30.18,6.2,West,13.8,-,N/A,,Mostly Cloudy,280,2013-06-24 07:30:00
10:00 AM,55.4,48.2,77,30.21,6.2,West,11.5,-,N/A,,Mostly Cloudy,280,2013-06-24 08:00:00
10:30 AM,57.2,50.0,77,30.21,6.2,West,9.2,-,N/A,,Mostly Cloudy,270,2013-06-24 08:30:00
11:00 AM,57.2,50.0,77,30.21,6.2,West,10.4,-,N/A,,Mostly Cloudy,270,2013-06-24 09:00:00
11:30 AM,57.2,48.2,72,30.21,6.2,West,11.5,-,N/A,,Mostly Cloudy,280,2013-06-24 09:30:00
12:00 PM,59.0,48.2,67,30.24,6.2,West,11.5,-,N/A,,Mostly Cloudy,270,2013-06-24 10:00:00
12:30 PM,59.0,48.2,67,30.24,6.2,WNW,10.4,-,N/A,,Mostly Cloudy,290,2013-06-24 10:30:00
1:00 PM,59.0,46.4,63,30.24,6.2,WNW,10.4,-,N/A,,Mostly Cloudy,290,2013-06-24 11:00:00
1:30 PM,59.0,46.4,63,30.24,6.2,West,11.5,-,N/A,,Mostly Cloudy,280,2013-06-24 11:30:00
2:00 PM,59.0,46.4,63,30.24,6.2,West,11.5,-,N/A,,Mostly Cloudy,280,2013-06-24 12:00:00
2:30 PM,57.2,44.6,63,30.24,6.2,West,10.4,-,N/A,,Mostly Cloudy,280,2013-06-24 12:30:00
3:00 PM,57.2,46.4,67,30.24,6.2,NW,8.1,-,N/A,,Mostly Cloudy,320,2013-06-24 13:00:00
3:30 PM,57.2,48.2,72,30.27,6.2,NW,6.9,-,N/A,,Mostly Cloudy,320,2013-06-24 13:30:00
4:00 PM,57.2,46.4,67,30.27,6.2,NW,8.1,-,N/A,,Mostly Cloudy,310,2013-06-24 14:00:00
4:30 PM,59.0,46.4,63,30.27,-9999.0,WNW,8.1,-,N/A,,Clear,300,2013-06-24 14:30:00
5:00 PM,59.0,46.4,63,30.27,-9999.0,NW,6.9,-,N/A,,Clear,310,2013-06-24 15:00:00
5:30 PM,59.0,46.4,63,30.27,6.2,NW,10.4,-,N/A,,Mostly Cloudy,320,2013-06-24 15:30:00
6:00 PM,59.0,46.4,63,30.27,6.2,NW,11.5,-,N/A,,Mostly Cloudy,320,2013-06-24 16:00:00
6:30 PM,60.8,46.4,59,30.27,6.2,NW,11.5,-,N/A,,Mostly Cloudy,320,2013-06-24 16:30:00
7:00 PM,59.0,44.6,59,30.27,6.2,NNW,10.4,-,N/A,,Mostly Cloudy,330,2013-06-24 17:00:00
7:30 PM,60.8,44.6,55,30.27,6.2,NW,10.4,-,N/A,,Mostly Cloudy,320,2013-06-24 17:30:00
8:00 PM,59.0,42.8,55,30.27,6.2,NW,10.4,-,N/A,,Mostly Cloudy,320,2013-06-24 18:00:00
8:30 PM,57.2,44.6,63,30.27,6.2,NW,9.2,-,N/A,,Mostly Cloudy,310,2013-06-24 18:30:00
9:00 PM,57.2,44.6,63,30.30,6.2,NW,6.9,-,N/A,,Mostly Cloudy,320,2013-06-24 19:00:00
9:30 PM,57.2,44.6,63,30.30,6.2,NW,4.6,-,N/A,,Mostly Cloudy,320,2013-06-24 19:30:00
10:00 PM,55.4,44.6,67,30.30,-9999.0,NNW,4.6,-,N/A,,Clear,330,2013-06-24 20:00:00
10:30 PM,55.4,44.6,67,30.30,-9999.0,NW,4.6,-,N/A,,Clear,320,2013-06-24 20:30:00
11:00 PM,53.6,44.6,72,30.30,-9999.0,NW,3.5,-,N/A,,Clear,320,2013-06-24 21:00:00
11:30 PM,53.6,44.6,72,30.33,-9999.0,WNW,3.5,-,N/A,,Clear,300,2013-06-24 21:30:00